Stations météo

réclame
Mon MeteoGroup
Cap Cepet, France (7661): Température de l'air & dewpoint: 16.10.2019 11:00:00 - 22.10.2019 11:00:00 (CEST)Cap Cepet, France (7661): Vitesse du vent & gusts: 16.10.2019 11:00:00 - 22.10.2019 11:00:00 (CEST)Cap Cepet, France (7661): Direction du vent: 16.10.2019 11:00:00 - 22.10.2019 11:00:00 (CEST)Cap Cepet, France (7661): reduced air pressure: 16.10.2019 11:00:00 - 22.10.2019 11:00:00 (CEST)Cap Cepet, France (7661): visibility: 16.10.2019 11:00:00 - 22.10.2019 11:00:00 (CEST)Cap Cepet, France (7661): Quantités de précipitations: 16.10.2019 11:00:00 - 22.10.2019 11:00:00 (CEST)
Date & Time tt [°C] td [°C] ff [km/h] ff [knt] fx [km/h] fx [knt] dd ppp [hPa] vv [km] rr [mm]
22.10.2019 11:00:00 20,3 18,6 55 30 77 42 E 1017,1 15 0,0
22.10.2019 10:00:00 19,1 18,6 32 17 46 25 E 1018,1 - 0,0
22.10.2019 09:00:00 18,2 17,9 27 15 41 22 E 1018,3 - 0,0
22.10.2019 08:00:00 17,0 16,5 29 15 36 19 E 1018,1 - 0,0
22.10.2019 07:00:00 16,9 16,3 16 9 30 16 E 1018,2 - 0,0
22.10.2019 06:00:00 16,7 16,1 22 12 35 19 E 1018,9 - 0,4
22.10.2019 05:00:00 16,4 15,4 16 8 24 13 E 1018,9 - 1,8
22.10.2019 04:00:00 15,6 15,0 13 7 25 14 NNE 1019,2 - 0,0
22.10.2019 03:00:00 15,8 14,8 8 4 19 10 E 1020,0 - 0,0
22.10.2019 02:00:00 16,2 14,6 5 3 11 6 NNE 1020,9 - 0,6
22.10.2019 01:00:00 17,5 11,7 4 2 16 8 WSW 1020,4 - 0,0
22.10.2019 00:00:00 16,6 14,6 15 8 22 12 E 1020,2 - 0,0
21.10.2019 23:00:00 15,9 14,9 18 10 23 12 NW 1021,2 - 0,0
21.10.2019 22:00:00 16,2 14,2 6 3 22 12 ENE 1020,8 - 0,0
21.10.2019 21:00:00 16,2 15,1 9 5 16 9 E 1019,9 - 0,0
21.10.2019 20:00:00 16,0 15,7 8 5 12 7 E 1020,7 23 0,0
21.10.2019 19:00:00 16,4 16,1 4 2 9 5 E 1021,0 - 0,0
21.10.2019 18:00:00 16,8 16,5 6 3 11 6 ENE 1020,5 - 0,0
21.10.2019 17:00:00 16,8 16,3 9 5 13 7 E 1020,5 - 0,2
21.10.2019 16:00:00 16,9 16,4 5 3 16 8 E 1020,8 - 0,2
21.10.2019 15:00:00 17,3 16,8 0 0 15 8 N 1020,8 - 0,8
21.10.2019 14:00:00 17,0 16,5 8 4 19 11 WSW 1020,8 23 0,6
21.10.2019 13:00:00 16,9 16,3 9 5 16 9 WSW 1021,1 - 0,4
21.10.2019 12:00:00 16,9 16,6 12 6 21 12 SSW 1020,6 - 0,0
21.10.2019 11:00:00 16,7 16,4 15 8 29 16 SW 1019,6 10 0,7
21.10.2019 10:00:00 17,1 16,9 21 11 39 21 SW 1019,6 - 4,2
21.10.2019 09:00:00 17,3 17,0 10 5 21 11 E 1018,6 - 1,4
21.10.2019 08:00:00 17,2 16,9 10 6 21 12 E 1017,9 - 0,0
21.10.2019 07:00:00 17,1 16,6 7 4 18 10 E 1017,0 - 0,2
21.10.2019 06:00:00 17,1 16,6 11 6 16 9 E 1016,6 - 0,2
21.10.2019 05:00:00 17,0 16,7 9 5 14 8 N 1016,4 - 0,4
21.10.2019 04:00:00 16,8 16,5 7 4 15 8 N 1016,1 - 0,4
21.10.2019 03:00:00 16,9 16,7 12 7 26 14 WNW 1017,5 - 0,2
21.10.2019 02:00:00 17,3 17,1 13 7 24 13 SW 1017,8 - 3,2
21.10.2019 01:00:00 17,3 17,0 13 7 54 29 WSW 1017,4 - 8,1
21.10.2019 00:00:00 18,7 17,9 13 7 44 24 SW 1016,0 - 1,4
20.10.2019 23:00:00 18,7 17,9 24 13 44 24 E 1013,4 - 0,0
20.10.2019 22:00:00 19,2 18,7 27 14 48 26 E 1014,0 - 0,0
20.10.2019 21:00:00 19,2 18,9 22 12 40 21 E 1014,6 - 0,4
20.10.2019 20:00:00 19,6 18,9 29 15 40 22 E 1014,3 - 0,8
20.10.2019 19:00:00 19,7 18,9 23 12 32 17 E 1014,1 - 0,4
20.10.2019 18:00:00 19,7 18,5 20 11 55 30 E 1013,8 - 0,4
20.10.2019 17:00:00 19,9 18,6 46 25 63 34 E 1012,0 - 0,6
20.10.2019 16:00:00 20,8 18,4 22 12 52 28 E 1013,9 - 0,0
20.10.2019 15:00:00 20,9 17,9 31 17 57 31 E 1012,0 - 0,0
20.10.2019 14:00:00 21,1 17,5 31 17 61 33 E 1012,0 20 0,0
20.10.2019 13:00:00 21,6 16,8 37 20 67 36 E 1011,8 - 0,0
20.10.2019 12:00:00 22,3 16,1 44 24 69 37 E 1011,6 - 0,0
20.10.2019 11:00:00 21,3 16,0 42 23 64 35 E 1011,9 20 0,0
20.10.2019 10:00:00 20,5 16,1 37 20 63 34 E 1012,3 - 0,0
20.10.2019 09:00:00 19,8 16,4 40 21 66 36 E 1011,8 - 0,0
20.10.2019 08:00:00 19,3 16,7 35 19 63 34 E 1011,4 18 0,0
20.10.2019 07:00:00 19,5 16,9 36 19 64 35 E 1011,5 - 0,0
20.10.2019 06:00:00 19,6 16,8 33 18 64 35 E 1011,5 - 0,0
20.10.2019 05:00:00 19,2 16,4 37 20 67 36 E 1011,2 - 0,0
20.10.2019 04:00:00 19,6 17,6 31 17 58 31 E 1011,2 - 0,0
20.10.2019 03:00:00 19,3 17,6 24 13 47 25 E 1012,0 - 0,0
20.10.2019 02:00:00 19,2 17,7 24 13 46 25 E 1012,3 - 0,0
20.10.2019 01:00:00 18,9 18,1 25 13 48 26 E 1012,6 - 0,0
20.10.2019 00:00:00 19,0 18,3 27 14 51 27 E 1012,7 - 0,0
19.10.2019 23:00:00 19,0 18,5 31 17 53 28 S 1012,6 - 0,0
19.10.2019 22:00:00 19,2 18,7 27 15 50 27 SSW 1012,4 - 0,0
19.10.2019 21:00:00 19,3 18,6 31 17 48 26 SSE 1012,6 - 0,0
19.10.2019 20:00:00 19,4 18,7 23 12 36 20 SSW 1012,7 - 0,0
19.10.2019 19:00:00 19,8 18,8 23 13 35 19 SW 1012,5 - 0,0
19.10.2019 18:00:00 20,1 18,6 21 11 32 17 SW 1012,2 - 0,0
19.10.2019 17:00:00 20,3 18,4 17 9 29 16 SE 1012,4 - 0,0
19.10.2019 16:00:00 20,6 18,9 19 10 40 21 SW 1012,4 - 0,0
19.10.2019 15:00:00 21,2 18,8 25 14 42 23 SW 1012,2 - 0,0
19.10.2019 14:00:00 21,1 19,0 25 13 50 27 SW 1012,6 - 0,0
19.10.2019 13:00:00 21,7 19,3 28 15 53 28 SW 1013,1 - 0,0
19.10.2019 12:00:00 21,4 19,1 27 15 46 25 SW 1013,3 - 0,0
19.10.2019 11:00:00 20,5 19,2 25 13 47 26 SW 1013,1 15 0,0
19.10.2019 10:00:00 19,8 18,8 29 15 45 25 SW 1012,9 - 0,0
19.10.2019 09:00:00 19,5 18,7 31 17 47 25 SW 1012,6 - 0,0
19.10.2019 08:00:00 19,2 18,4 31 17 52 28 SW 1012,1 - 0,0
19.10.2019 07:00:00 19,2 18,4 32 17 51 28 SW 1012,3 - 0,0
19.10.2019 06:00:00 19,2 18,0 29 16 54 29 SW 1012,5 - 0,0
19.10.2019 05:00:00 19,2 18,0 31 17 45 25 SW 1012,9 20 0,0
19.10.2019 04:00:00 19,2 18,0 25 13 40 22 SW 1013,6 - 0,0
19.10.2019 03:00:00 19,2 18,0 23 13 35 19 SW 1014,2 - 0,0
19.10.2019 02:00:00 19,1 17,9 21 12 37 20 SW 1014,5 - 0,0
19.10.2019 01:00:00 19,1 17,9 21 12 33 18 SW 1014,5 - 0,0
19.10.2019 00:00:00 19,1 18,3 20 11 29 15 SW 1015,1 - 0,0
18.10.2019 23:00:00 19,3 18,6 13 7 22 12 SSW 1015,6 - 0,0
18.10.2019 22:00:00 19,1 18,4 14 8 25 14 SW 1015,8 - 0,0
18.10.2019 21:00:00 19,0 18,3 16 9 26 14 SW 1015,8 - 0,0
18.10.2019 20:00:00 19,1 17,9 16 9 29 16 SW 1015,8 - 0,0
18.10.2019 19:00:00 19,0 18,0 17 9 25 14 SW 1015,5 - 0,0
18.10.2019 18:00:00 19,6 18,1 12 6 22 12 WSW 1015,8 - 0,0
18.10.2019 17:00:00 21,0 18,6 11 6 19 10 SW 1015,8 - 0,0
18.10.2019 16:00:00 20,2 18,3 5 3 21 11 SW 1015,9 - 0,0
18.10.2019 15:00:00 22,0 19,5 14 7 23 12 SW 1015,8 - 0,0
18.10.2019 14:00:00 20,4 18,0 16 8 29 16 SW 1016,4 21 0,0
18.10.2019 13:00:00 20,4 18,0 19 11 34 19 SW 1017,0 - 0,0
18.10.2019 12:00:00 18,4 17,6 14 8 31 17 E 1017,4 - 0,0
18.10.2019 11:00:00 17,7 17,1 18 10 31 17 E 1017,5 18 0,4
18.10.2019 10:00:00 18,3 16,8 21 12 42 23 E 1017,6 - 0,0
18.10.2019 09:00:00 18,4 16,7 22 12 35 19 SE 1017,1 - 0,0
18.10.2019 08:00:00 18,3 17,0 15 8 31 17 E 1016,9 22 0,0
18.10.2019 07:00:00 18,0 16,5 18 10 33 18 E 1016,8 - 0,0
18.10.2019 06:00:00 17,7 16,4 16 9 25 13 SW 1017,0 - 0,0
18.10.2019 05:00:00 17,9 16,9 11 6 20 11 E 1017,1 - 0,0
18.10.2019 04:00:00 18,0 16,7 9 5 20 11 E 1017,7 - 0,0
18.10.2019 03:00:00 18,2 17,0 14 8 26 14 SW 1017,9 - 0,0
18.10.2019 02:00:00 17,4 16,4 13 7 19 11 E 1018,4 - 0,2
18.10.2019 01:00:00 17,3 15,8 14 7 21 12 E 1018,9 - 0,0
18.10.2019 00:00:00 17,7 16,0 16 9 23 13 E 1018,8 - 0,0
17.10.2019 23:00:00 17,8 16,0 14 7 26 14 E 1019,1 - 0,0
17.10.2019 22:00:00 18,5 15,9 11 6 25 14 SE 1019,0 - 0,0
17.10.2019 21:00:00 18,2 16,0 17 9 26 14 SW 1018,6 - 0,0
17.10.2019 20:00:00 18,1 16,1 14 8 24 13 SSE 1018,5 25 0,0
17.10.2019 19:00:00 18,7 16,3 15 8 26 14 SW 1018,3 - 0,0
17.10.2019 18:00:00 19,3 16,1 17 9 29 15 SW 1018,1 - 0,0
17.10.2019 17:00:00 21,3 16,5 20 11 30 16 SW 1018,0 - 0,0
17.10.2019 16:00:00 21,7 16,4 16 9 36 19 SW 1018,2 - 0,0
17.10.2019 15:00:00 21,0 16,4 21 11 38 21 SW 1018,6 - 0,0
17.10.2019 14:00:00 22,4 16,4 22 12 34 19 SW 1018,7 - 0,0
17.10.2019 13:00:00 22,5 16,3 18 10 40 22 SW 1019,2 - 0,0
17.10.2019 12:00:00 20,6 16,6 15 8 33 18 S 1019,5 - 0,0
17.10.2019 11:00:00 18,3 15,4 16 8 26 14 E 1019,7 25 0,0
17.10.2019 10:00:00 17,5 14,8 17 9 25 13 E 1019,5 - 0,0
17.10.2019 09:00:00 16,9 14,5 13 7 29 16 E 1019,2 - 0,0
17.10.2019 08:00:00 15,9 14,3 15 8 24 13 E 1018,7 - 0,0
17.10.2019 07:00:00 15,9 14,3 13 7 26 14 E 1018,2 - 0,0
17.10.2019 06:00:00 16,7 14,3 13 7 30 16 E 1018,1 - 0,0
17.10.2019 05:00:00 18,3 14,8 16 9 28 15 SW 1018,4 20 0,0
17.10.2019 04:00:00 17,3 14,6 15 8 27 15 E 1018,9 - 0,0
17.10.2019 03:00:00 17,8 14,9 10 5 19 10 E 1019,1 - 0,0
17.10.2019 02:00:00 17,0 14,5 14 7 24 13 E 1019,0 - 0,0
17.10.2019 01:00:00 17,0 14,5 13 7 22 12 E 1019,0 - 0,0
17.10.2019 00:00:00 17,0 13,9 11 6 20 11 E 1019,4 - 0,0
16.10.2019 23:00:00 16,8 13,7 12 7 19 10 E 1018,9 - 0,0
16.10.2019 22:00:00 17,7 14,2 13 7 18 10 E 1018,4 - 0,0
16.10.2019 21:00:00 18,3 14,6 8 5 16 9 E 1018,3 - 0,0
16.10.2019 20:00:00 18,0 14,3 10 5 12 6 E 1018,0 - 0,0
16.10.2019 19:00:00 17,5 13,6 6 3 16 9 SW 1017,7 - 0,0
16.10.2019 18:00:00 18,6 13,0 13 7 22 12 SW 1017,6 - 0,0
16.10.2019 17:00:00 20,0 12,2 16 9 26 14 WSW 1017,4 - 0,0
16.10.2019 16:00:00 21,3 12,2 18 10 29 16 WSW 1017,5 - 0,0
16.10.2019 15:00:00 21,8 10,6 18 10 33 18 WSW 1018,0 - 0,0
16.10.2019 14:00:00 20,1 9,9 26 14 43 23 NW 1018,3 - 0,0
16.10.2019 13:00:00 19,2 8,2 28 15 47 25 NW 1018,8 - 0,0
16.10.2019 12:00:00 18,3 6,8 32 17 45 24 NW 1018,9 - 0,0
16.10.2019 11:00:00 17,2 6,7 25 14 42 23 NW 1018,9 28 0,0

tt = Température de l'air
td = dewpoint
ff = Vitesse du vent
fx = gusts
dd = Direction du vent
ppp = reduced air pressure
vv = visibility
rr = Quantités de précipitations

stations d'obs. à proximité